Location: Ammerl�gen
(47.2167°N, 9.6000°E)
Time: 09:50:54
(UTC+00:00)

SL-16 R/B - Pass Details

Date: 21 April 2021
Orbit: 840 x 849 km, 71.0° (Epoch: 06 May)

Event Time Altitude Azimuth Distance (km) Brightness Sun altitude
Rises 21:30:06 0° 326° (NW) 3,422 6.7 -25.7°
Reaches altitude 10° 21:32:43 10° 318° (NW) 2,481 5.6 -25.9°
Maximum altitude 21:37:51 36° 254° (WSW) 1,315 3.2 -26.4°
Enters shadow 21:38:52 33° 231° (SW) 1,378 3.2 -26.4°
